Satellite: NOAA-11
Catalog number: 19531
Epoch time:      06362.27457274
Element set:     448
Inclination:      098.8194 deg
RA of node:       088.5353 deg
Eccentricity:    0.0011963
Arg of perigee:   154.0446 deg
Mean anomaly:     206.1301 deg
Mean motion:   14.14831851 rev/day
Decay rate:       -9.4e-07 rev/day^2
Epoch rev:           94198
Checksum:              312

Satellite: NOAA-12
Catalog number: 21263
Epoch time:      06362.46232485
Element set:     946
Inclination:      098.7437 deg
RA of node:       355.0659 deg
Eccentricity:    0.0012174
Arg of perigee:   241.6670 deg
Mean anomaly:     118.3309 deg
Mean motion:   14.25518903 rev/day
Decay rate:       -7.9e-07 rev/day^2
Epoch rev:           81192
Checksum:              311

Satellite: MET-3/5
Catalog number: 21655
Epoch time:      06361.93685191
Element set:    0206
Inclination:      082.5540 deg
RA of node:       123.9373 deg
Eccentricity:    0.0012425
Arg of perigee:   278.9796 deg
Mean anomaly:     080.9920 deg
Mean motion:   13.17009049 rev/day
Decay rate:        5.1e-07 rev/day^2
Epoch rev:           73886
Checksum:              318

Satellite: MET-2/21
Catalog number: 22782
Epoch time:      06362.56073171
Element set:     707
Inclination:      082.5471 deg
RA of node:       177.2642 deg
Eccentricity:    0.0022591
Arg of perigee:   358.7859 deg
Mean anomaly:     001.3233 deg
Mean motion:   13.83613836 rev/day
Decay rate:       -2.9e-07 rev/day^2
Epoch rev:           67292
Checksum:              310

Satellite: OKEAN-4
Catalog number: 23317
Epoch time:      06361.47006562
Element set:    0143
Inclination:      082.5401 deg
RA of node:       096.7361 deg
Eccentricity:    0.0023891
Arg of perigee:   097.8131 deg
Mean anomaly:     262.5758 deg
Mean motion:   14.82449260 rev/day
Decay rate:       2.93e-06 rev/day^2
Epoch rev:           65861
Checksum:              303

Satellite: NOAA-14
Catalog number: 23455
Epoch time:      06361.66155607
Element set:    0438
Inclination:      099.0144 deg
RA of node:       061.7521 deg
Eccentricity:    0.0009140
Arg of perigee:   221.1305 deg
Mean anomaly:     138.9192 deg
Mean motion:   14.13688268 rev/day
Decay rate:       1.41e-06 rev/day^2
Epoch rev:           61840
Checksum:              283

Satellite: SICH-1
Catalog number: 23657
Epoch time:      06361.46055896
Element set:    0947
Inclination:      082.5273 deg
RA of node:       237.6359 deg
Eccentricity:    0.0025643
Arg of perigee:   087.5442 deg
Mean anomaly:     272.8706 deg
Mean motion:   14.81435318 rev/day
Decay rate:       2.74e-06 rev/day^2
Epoch rev:           61060
Checksum:              321

Satellite: NOAA-15
Catalog number: 25338
Epoch time:      06361.66153034
Element set:    0805
Inclination:      098.5248 deg
RA of node:       358.2496 deg
Eccentricity:    0.0010864
Arg of perigee:   165.8004 deg
Mean anomaly:     194.3460 deg
Mean motion:   14.24619004 rev/day
Decay rate:        8.4e-07 rev/day^2
Epoch rev:           44826
Checksum:              305

Satellite: RESURS
Catalog number: 25394
Epoch time:      06362.69150342
Element set:     534
Inclination:      098.4683 deg
RA of node:       058.7575 deg
Eccentricity:    0.0001452
Arg of perigee:   003.5532 deg
Mean anomaly:     356.5656 deg
Mean motion:   14.24123154 rev/day
Decay rate:        2.3e-07 rev/day^2
Epoch rev:           44008
Checksum:              281

Satellite: FENGYUN1
Catalog number: 25730
Epoch time:      06361.59822689
Element set:    0915
Inclination:      098.6432 deg
RA of node:       346.9873 deg
Eccentricity:    0.0013986
Arg of perigee:   312.6924 deg
Mean anomaly:     047.3072 deg
Mean motion:   14.11820305 rev/day
Decay rate:       1.64e-06 rev/day^2
Epoch rev:           39330
Checksum:              310

Satellite: OKEAN-0
Catalog number: 25860
Epoch time:      06361.62408522
Element set:    0939
Inclination:      097.7295 deg
RA of node:       006.9102 deg
Eccentricity:    0.0000827
Arg of perigee:   111.9594 deg
Mean anomaly:     248.1700 deg
Mean motion:   14.73418510 rev/day
Decay rate:        7.8e-07 rev/day^2
Epoch rev:           40023
Checksum:              282

Satellite: NOAA-16
Catalog number: 26536
Epoch time:      06362.39462633
Element set:     205
Inclination:      099.0949 deg
RA of node:       331.5633 deg
Eccentricity:    0.0009999
Arg of perigee:   295.6989 deg
Mean anomaly:     064.3152 deg
Mean motion:   14.12395173 rev/day
Decay rate:       2.76e-06 rev/day^2
Epoch rev:           32299
Checksum:              344

Satellite: NOAA-17
Catalog number: 27453
Epoch time:      06361.63505784
Element set:    0222
Inclination:      098.6023 deg
RA of node:       069.8936 deg
Eccentricity:    0.0011313
Arg of perigee:   229.5388 deg
Mean anomaly:     130.4802 deg
Mean motion:   14.23840454 rev/day
Decay rate:        7.6e-07 rev/day^2
Epoch rev:           23430
Checksum:              293

Satellite: NOAA-18
Catalog number: 28654
Epoch time:      06361.65396476
Element set:    0775
Inclination:      098.8115 deg
RA of node:       300.9831 deg
Eccentricity:    0.0014941
Arg of perigee:   036.0658 deg
Mean anomaly:     324.1485 deg
Mean motion:   14.11022877 rev/day
Decay rate:       -9.0e-08 rev/day^2
Epoch rev:           08266
Checksum:              322

/EX
SB KEPS @ AMSAT  $ORB06362.M
Orbital Elements  06362.MISC

HR AMSAT ORBITAL ELEMENTS FOR MANNED AND MISCELLANEOUS SATELLITES
FROM WA5QGD FORT WORTH,TX December 28, 2006
Send SUBSCRIBE KEPS/UNSUBSCRIBE KEPS to majordomo at amsat.org only
BID: ORB06362.M
TO ALL RADIO AMATEURS BT

Satellite: HUBBLE
Catalog number: 20580
Epoch time:      06362.89970543
Element set:     770
Inclination:      028.4676 deg
RA of node:       220.4846 deg
Eccentricity:    0.0003683
Arg of perigee:   091.5333 deg
Mean anomaly:     268.5680 deg
Mean motion:   15.00166472 rev/day
Decay rate:       3.73e-06 rev/day^2
Epoch rev:           71436
Checksum:              304

Satellite: UARS
Catalog number: 21701
Epoch time:      06362.90441905
Element set:     957
Inclination:      056.9774 deg
RA of node:       331.8102 deg
Eccentricity:    0.0093924
Arg of perigee:   220.7141 deg
Mean anomaly:     138.6869 deg
Mean motion:   15.46208650 rev/day
Decay rate:      4.208e-05 rev/day^2
Epoch rev:           83939
Checksum:              313

Satellite: PO-34
Catalog number: 25520
Epoch time:      06361.92300268
Element set:    0653
Inclination:      028.4593 deg
RA of node:       174.9158 deg
Eccentricity:    0.0005824
Arg of perigee:   186.5711 deg
Mean anomaly:     173.4812 deg
Mean motion:   15.16888214 rev/day
Decay rate:       4.46e-06 rev/day^2
Epoch rev:           45149
Checksum:              312

Satellite: ISS
Catalog number: 25544
Epoch time:      06363.03343138
Element set:     344
Inclination:      051.6356 deg
RA of node:       263.0105 deg
Eccentricity:    0.0023633
Arg of perigee:   031.1720 deg
Mean anomaly:     069.5322 deg
Mean motion:   15.76474692 rev/day
Decay rate:     1.6273e-04 rev/day^2
Epoch rev:           46390
Checksum:              274

Satellite: OO-38
Catalog number: 26063
Epoch time:      06361.60367251
Element set:    0802
Inclination:      100.2114 deg
RA of node:       327.6531 deg
Eccentricity:    0.0036604
Arg of perigee:   282.8800 deg
Mean anomaly:     076.8284 deg
Mean motion:   14.35790801 rev/day
Decay rate:       -1.3e-07 rev/day^2
Epoch rev:           36243
Checksum:              274

Satellite: NO-45
Catalog number: 26932
Epoch time:      06362.86384993
Element set:     490
Inclination:      067.0541 deg
RA of node:       225.9663 deg
Eccentricity:    0.0003358
Arg of perigee:   253.4310 deg
Mean anomaly:     106.6423 deg
Mean motion:   14.29545413 rev/day
Decay rate:       -3.3e-07 rev/day^2
Epoch rev:           27379
Checksum:              310

Satellite: UWE-1
Catalog number: 28892
Epoch time:      06362.43288824
Element set:     639
Inclination:      098.1466 deg
RA of node:       257.2931 deg
Eccentricity:    0.0016538
Arg of perigee:   287.3756 deg
Mean anomaly:     072.5631 deg
Mean motion:   14.59446732 rev/day
Decay rate:       2.77e-06 rev/day^2
Epoch rev:            6230
Checksum:              334

Satellite: CO-58
Catalog number: 28895
Epoch time:      06361.66316321
Element set:     620
Inclination:      098.1479 deg
RA of node:       256.6855 deg
Eccentricity:    0.0016866
Arg of perigee:   289.5547 deg
Mean anomaly:     070.3816 deg
Mean motion:   14.59495990 rev/day
Decay rate:       2.22e-06 rev/day^2
Epoch rev:            6207
Checksum:              350

Satellite: NCUBE2
Catalog number: 28897
Epoch time:      06361.68827195
Element set:    0163
Inclination:      098.1469 deg
RA of node:       256.6789 deg
Eccentricity:    0.0016578
Arg of perigee:   291.9909 deg
Mean anomaly:     067.9512 deg
Mean motion:   14.59654493 rev/day
Decay rate:       2.16e-06 rev/day^2
Epoch rev:           05435
Checksum:              369

Satellite: NMARS
Catalog number: 29662
Epoch time:      06362.91662814
Element set:      13
Inclination:      051.6436 deg
RA of node:       263.1823 deg
Eccentricity:    0.0014932
Arg of perigee:   050.0023 deg
Mean anomaly:     310.2247 deg
Mean motion:   15.83142814 rev/day
Decay rate:     4.2681e-04 rev/day^2
Epoch rev:             114
Checksum:              252

Satellite: FCAL
Catalog number: 29664
Epoch time:      06361.97291287
Element set:    0009
Inclination:      051.6347 deg
RA of node:       268.1345 deg
Eccentricity:    0.0017593
Arg of perigee:   040.8891 deg
Mean anomaly:     319.3421 deg
Mean motion:   15.82165714 rev/day
Decay rate:     1.8518e-04 rev/day^2
Epoch rev:           00097
Checksum:              316

/EX





More information about the Keps mailing list